User: anonymous   Login
Location: Wald
(31.7579°N, 86.6655°W)
Time: 02:18:03
(UTC+00:00)
Language:

Gblst 52 Del rocket - Orbit

View from above orbital plane
View from above orbital plane
View from above satellite
View from above satellite

Ground track
Ground track

The orbit data is extracted from the following two-line orbital elements,

1 25774U 99031E   20272.21870976 -.00000149 +00000-0 -21998-4 0  9999
2 25774 051.5291 189.0124 0374918 289.4068 229.0415 13.46458714047944
Epoch (UTC): 28 September 2020 05:14:56
Eccentricity: 0.0374918
inclination: 51.5291°
perigee height: 805 km
apogee height: 1365 km
right ascension of ascending node: 189.0124°
argument of perigee: 289.4068°
revolutions per day: 13.46458714
mean anomaly at epoch: 229.0415°
orbit number at epoch: 4794

The dashed part of the orbit path shows where the satellite is in the earth's shadow,  

DLR